Location: ?????
(44.4284°N, 135.2222°E)
Time: 03:32:01
(UTC+00:00)

CZ-2C R/B - Pass Details

Date: 19 May 2025
Orbit: 631 x 693 km, 98.1° (Epoch: 15 June)

Event Time Altitude Azimuth Distance (km) Brightness Sun altitude
Rises 13:27:14 0° 18° (NNE) 2,935 7.8 -22.6°
Reaches altitude 10° 13:29:30 10° 23° (NNE) 2,021 6.8 -22.7°
Enters shadow 13:33:32 50° 88° (E) 806 3.9 -23.0°
